H1 CPF 2 NER 2024 5 24 9 145 01 glonass107 H2 0706501 9107 32393 2024 5 24 0 0 0 2024 5 27 23 45 0 900 1 1 0 0 0 1 H9 10 0 60454 0.00000 0 22079543.118 -3690651.353 12217583.688 10 0 60454 900.00000 0 20539696.415 -3038477.073 14806398.182 10 0 60454 1800.00000 0 18791394.058 -2124126.189 17107394.304 10 0 60454 2700.00000 0 16896207.912 -938105.456 19075825.381 10 0 60454 3600.00000 0 14918379.387 516687.692 20673410.505 10 0 60454 4500.00000 0 12922205.894 2224830.309 21869080.529 10 0 60454 5400.00000 0 10969443.729 4158771.703 22639583.161 10 0 60454 6300.00000 0 9116835.941 6279748.481 22969935.554 10 0 60454 7200.00000 0 7413868.370 8539179.691 22853715.746 10 0 60454 8100.00000 0 5900847.229 10880484.782 22293187.437 10 0 60454 9000.00000 0 4607378.007 13241249.380 21299255.728 10 0 60454 9900.00000 0 3551308.537 15555649.126 19891254.700 10 0 60454 10800.00000 0 2738179.549 17757030.985 18096570.836 10 0 60454 11700.00000 0 2161204.642 19780544.684 15950109.496 10 0 60454 12600.00000 0 1801779.368 21565714.595 13493614.645 10 0 60454 13500.00000 0 1630496.819 23058844.789 10774855.010 10 0 60454 14400.00000 0 1608625.722 24215156.767 7846692.463 10 0 60454 15300.00000 0 1689987.515 25000570.515 4766050.937 10 0 60454 16200.00000 0 1823152.017 25393054.453 1592806.209 10 0 60454 17100.00000 0 1953857.806 25383487.968 -1611381.455 10 0 60454 18000.00000 0 2027553.993 24976000.772 -4784268.563 10 0 60454 18900.00000 0 1991955.017 24187775.367 -7864239.726 10 0 60454 19800.00000 0 1799499.666 23048321.533 -10791505.110 10 0 60454 20700.00000 0 1409609.770 21598253.919 -13509260.401 10 0 60454 21600.00000 0 790652.655 19887624.575 -15964786.733 10 0 60454 22500.00000 0 -78475.904 17973880.781 -18110469.402 10 0 60454 23400.00000 0 -1207215.337 15919533.869 -19904715.979 10 0 60454 24300.00000 0 -2592698.850 13789636.580 -21312756.660 10 0 60454 25200.00000 0 -4219634.461 11649173.962 -22307312.097 10 0 60454 26100.00000 0 -6060714.239 9560476.171 -22869116.560 10 0 60454 27000.00000 0 -8077535.569 7580760.189 -22987287.019 10 0 60454 27900.00000 0 -10221997.100 5759901.842 -22659531.616 10 0 60454 28800.00000 0 -12438112.311 4138529.858 -21892193.793 10 0 60454 29700.00000 0 -14664166.439 2746520.152 -20700131.293 10 0 60454 30600.00000 0 -16835128.152 1601951.988 -19106432.132 10 0 60454 31500.00000 0 -18885216.645 710568.550 -17141972.525 10 0 60454 32400.00000 0 -20750518.153 65763.564 -14844824.642 10 0 60454 33300.00000 0 -22371543.478 -350906.228 -12259524.830 10 0 60454 34200.00000 0 -23695620.182 -568704.827 -9436215.721 10 0 60454 35100.00000 0 -24679019.615 -626240.170 -6429678.147 10 0 60454 36000.00000 0 -25288729.660 -569589.376 -3298271.113 10 0 60454 36900.00000 0 -25503798.565 -450105.528 -102800.198 10 0 60454 37800.00000 0 -25316193.048 -321999.101 3094663.699 10 0 60454 38700.00000 0 -24731134.120 -239796.853 6231992.069 10 0 60454 39600.00000 0 -23766895.980 -255786.393 9248209.076 10 0 60454 40500.00000 0 -22454075.987 -417555.359 12084680.360 10 0 60454 41400.00000 0 -20834365.979 -765730.309 14686256.754 10 0 60454 42300.00000 0 -18958876.287 -1332011.965 17002350.115 10 0 60454 43200.00000 0 -16886082.608 -2137590.988 18987920.063 10 0 60454 44100.00000 0 -14679481.672 -3192012.327 20604352.175 10 0 60454 45000.00000 0 -12405053.836 -4492537.240 21820210.499 10 0 60454 45900.00000 0 -10128638.642 -6024031.062 22611849.834 10 0 60454 46800.00000 0 -7913332.822 -7759382.656 22963875.988 10 0 60454 47700.00000 0 -5817019.178 -9660439.079 22869445.256 10 0 60454 48600.00000 0 -3890129.024 -11679417.337 22330397.411 10 0 60454 49500.00000 0 -2173730.971 -13760735.079 21357219.725 10 0 60454 50400.00000 0 -698025.123 -15843184.348 19968842.664 10 0 60454 51300.00000 0 518695.415 -17862358.089 18192271.195 10 0 60454 52200.00000 0 1470573.344 -19753228.346 16062058.670 10 0 60454 53100.00000 0 2164185.415 -21452768.487 13619633.429 10 0 60454 54000.00000 0 2618011.492 -22902509.824 10912491.103 10 0 60454 54900.00000 0 2861398.179 -24050925.554 7993268.333 10 0 60454 55800.00000 0 2933061.992 -24855542.027 4918716.068 10 0 60454 56700.00000 0 2879196.573 -25284688.771 1748592.724 10 0 60454 57600.00000 0 2751265.115 -25318813.867 -1455500.935 10 0 60454 58500.00000 0 2603572.447 -24951309.531 -4631321.948 10 0 60454 59400.00000 0 2490720.455 -24188813.485 -7717196.579 10 0 60454 60300.00000 0 2465055.270 -23050973.768 -10653218.994 10 0 60454 61200.00000 0 2574214.847 -21569687.230 -13382413.615 10 0 60454 62100.00000 0 2858881.078 -19787843.998 -15851838.485 10 0 60454 63000.00000 0 3350831.707 -17757630.813 -18013608.403 10 0 60454 63900.00000 0 4071374.525 -15538464.353 -19825818.354 10 0 60454 64800.00000 0 5030230.096 -13194640.856 -21253349.947 10 0 60454 65700.00000 0 6224910.348 -10792799.796 -22268546.000 10 0 60454 66600.00000 0 7640619.660 -8399306.767 -22851740.976 10 0 60454 67500.00000 0 9250683.258 -6077663.738 -22991637.735 10 0 60454 68400.00000 0 11017485.901 -3886053.378 -22685523.934 10 0 60454 69300.00000 0 12893882.631 -1875118.455 -21939324.181 10 0 60454 70200.00000 0 14825023.841 -86067.463 -20767487.037 10 0 60454 71100.00000 0 16750519.667 1450815.977 -19192708.805 10 0 60454 72000.00000 0 18606854.489 2717198.926 -17245498.955 10 0 60454 72900.00000 0 20329951.700 3707218.450 -14963594.929 10 0 60454 73800.00000 0 21857782.406 4427473.681 -12391236.837 10 0 60454 74700.00000 0 23132909.414 4896491.676 -9578315.332 10 0 60454 75600.00000 0 24104860.254 5143690.206 -6579408.497 10 0 60454 76500.00000 0 24732229.668 5207881.591 -3452725.867 10 0 60454 77400.00000 0 24984423.012 5135381.186 -258979.872 10 0 60454 78300.00000 0 24842966.803 4977800.798 2939793.451 10 0 60454 79200.00000 0 24302330.633 4789620.868 6081441.356 10 0 60454 80100.00000 0 23370225.162 4625644.691 9104905.036 10 0 60454 81000.00000 0 22067362.889 4538443.118 11951409.971 10 0 60454 81900.00000 0 20426691.074 4575898.673 14565612.340 10 0 60454 82800.00000 0 18492128.436 4778953.848 16896678.680 10 0 60454 83700.00000 0 16316858.135 5179659.736 18899277.424 10 0 60454 84600.00000 0 13961248.189 5799608.388 20534462.836 10 0 60454 85500.00000 0 11490486.081 6648816.085 21770434.040 10 0 60455 0.00000 0 8972026.360 7725105.454 22583154.392 10 0 60455 900.00000 0 6472956.194 9014014.098 22956819.646 10 0 60455 1800.00000 0 4057391.787 10489233.052 22884164.983 10 0 60455 2700.00000 0 1784009.307 12113559.471 22366606.538 10 0 60455 3600.00000 0 -296184.018 13840323.065 21414213.544 10 0 60455 4500.00000 0 -2141747.748 15615227.665 20045512.183 10 0 60455 5400.00000 0 -3722296.546 17378531.245 18287124.749 10 0 60455 6300.00000 0 -5019517.897 19067473.427 16173251.007 10 0 60455 7200.00000 0 -6027677.852 20618848.926 13745001.707 10 0 60455 8100.00000 0 -6753594.979 21971619.076 11049597.108 10 0 60455 9000.00000 0 -7216085.065 23069451.815 8139446.079 10 0 60455 9900.00000 0 -7444901.344 23863083.321 5071123.850 10 0 60455 10800.00000 0 -7479216.381 24312401.891 1904268.577 10 0 60455 11700.00000 0 -7365711.030 24388166.335 -1299581.460 10 0 60455 12600.00000 0 -7156352.448 24073286.495 -4478186.867 10 0 60455 13500.00000 0 -6905956.209 23363612.031 -7569818.547 10 0 60455 14400.00000 0 -6669636.513 22268196.373 -10514457.571 10 0 60455 15300.00000 0 -6500253.059 20809024.836 -13254959.821 10 0 60455 16200.00000 0 -6445962.952 19020218.446 -15738162.752 10 0 60455 17100.00000 0 -6547981.416 16946746.861 -17915912.908 10 0 60455 18000.00000 0 -6838645.954 14642704.279 -19745994.658 10 0 60455 18900.00000 0 -7339865.664 12169220.119 -21192942.706 10 0 60455 19800.00000 0 -8062021.097 9592091.254 -22228723.429 10 0 60455 20700.00000 0 -9003361.100 6979233.841 -22833272.569 10 0 60455 21600.00000 0 -10149922.319 4398059.905 -22994879.636 10 0 60455 22500.00000 0 -11475975.277 1912886.697 -22710412.199 10 0 60455 23400.00000 0 -12944979.095 -417514.661 -21985376.031 10 0 60455 24300.00000 0 -14511005.805 -2542130.705 -20833810.083 10 0 60455 25200.00000 0 -16120575.700 -4419586.659 -19278018.081 10 0 60455 26100.00000 0 -17714827.981 -6019619.923 -17348141.469 10 0 60455 27000.00000 0 -19231936.857 -7324085.791 -15081581.312 10 0 60455 27900.00000 0 -20609672.781 -8327454.428 -12522279.522 10 0 60455 28800.00000 0 -21788002.053 -9036779.183 -9719872.584 10 0 60455 29700.00000 0 -22711616.092 -9471138.313 -6728733.466 10 0 60455 30600.00000 0 -23332284.150 -9660574.204 -3606919.750 10 0 60455 31500.00000 0 -23610930.309 -9644575.253 -415048.150 10 0 60455 32400.00000 0 -23519346.826 -9470164.986 2784882.790 10 0 60455 33300.00000 0 -23041470.969 -9189679.561 5930698.770 10 0 60455 34200.00000 0 -22174170.682 -8858328.203 8961260.712 10 0 60455 35100.00000 0 -20927505.079 -8531640.337 11817656.622 10 0 60455 36000.00000 0 -19324447.827 -8262908.100 14444350.654 10 0 60455 36900.00000 0 -17400084.160 -8100733.140 16790266.494 10 0 60455 37800.00000 0 -15200314.440 -8086782.179 18809783.662 10 0 60455 38700.00000 0 -12780117.870 -8253846.925 20463627.096 10 0 60455 39600.00000 0 -10201448.494 -8624291.042 21719632.643 10 0 60455 40500.00000 0 -7530850.882 -9208950.396 22553373.603 10 0 60455 41400.00000 0 -4836894.543 -10006533.677 22948636.288 10 0 60455 42300.00000 0 -2187533.606 -11003549.340 22897735.503 10 0 60455 43200.00000 0 352498.732 -12174762.599 22401663.950 10 0 60455 44100.00000 0 2724153.080 -13484163.927 21470072.751 10 0 60455 45000.00000 0 4876282.122 -14886408.882 20121083.439 10 0 60455 45900.00000 0 6767522.650 -16328669.280 18380935.014 10 0 60455 46800.00000 0 8367763.871 -17752818.256 16283472.771 10 0 60455 47700.00000 0 9659141.719 -19097857.624 13869488.707 10 0 60455 48600.00000 0 10636518.867 -20302485.536 11185926.248 10 0 60455 49500.00000 0 11307431.692 -21307696.420 8284964.741 10 0 60455 50400.00000 0 11691507.843 -22059303.589 5223001.660 10 0 60455 51300.00000 0 11819380.434 -22510278.085 2059552.619 10 0 60455 52200.00000 0 11731146.022 -22622805.022 -1143909.079 10 0 60455 53100.00000 0 11474432.821 -22369970.514 -4325150.230 10 0 60455 54000.00000 0 11102161.932 -21737007.968 -7422389.111 10 0 60455 54900.00000 0 10670097.235 -20722051.090 -10375496.466 10 0 60455 55800.00000 0 10234288.278 -19336361.793 -13127162.423 10 0 60455 56700.00000 0 9848514.770 -17604023.348 -15624006.590 10 0 60455 57600.00000 0 9561840.915 -15561111.440 -17817609.913 10 0 60455 58500.00000 0 9416382.891 -13254377.676 -19665448.628 10 0 60455 59400.00000 0 9445383.541 -10739500.183 -21131712.809 10 0 60455 60300.00000 0 9671675.206 -8078973.787 -22187994.363 10 0 60455 61200.00000 0 10106595.253 -5339726.971 -22813831.939 10 0 60455 62100.00000 0 10749399.833 -2590563.853 -22997102.959 10 0 60455 63000.00000 0 11587200.611 100463.611 -22734255.764 10 0 60455 63900.00000 0 12595427.470 2668645.230 -22030377.775 10 0 60455 64800.00000 0 13738798.337 5055057.771 -20899098.441 10 0 60455 65700.00000 0 14972756.226 7208765.470 -19362328.648 10 0 60455 66600.00000 0 16245314.084 9088685.632 -17449841.191 10 0 60455 67500.00000 0 17499230.966 10665042.828 -15198699.750 10 0 60455 68400.00000 0 18674429.021 11920352.123 -12652546.639 10 0 60455 69300.00000 0 19710550.448 12849891.121 -9860762.372 10 0 60455 70200.00000 0 20549547.333 13461641.847 -6877512.608 10 0 60455 71100.00000 0 21138195.561 13775705.537 -3760700.423 10 0 60455 72000.00000 0 21430426.737 13823215.490 -570843.962 10 0 60455 72900.00000 0 21389379.421 13644794.250 2630098.787 10 0 60455 73800.00000 0 20989082.424 13288620.699 5779935.142 10 0 60455 74700.00000 0 20215698.312 12808189.146 8817448.944 10 0 60455 75600.00000 0 19068273.612 12259855.671 11683593.842 10 0 60455 76500.00000 0 17558962.963 11700275.975 14322644.934 10 0 60455 77400.00000 0 15712716.676 11183843.682 16683285.852 10 0 60455 78300.00000 0 13566443.710 10760237.926 18719609.763 10 0 60455 79200.00000 0 11167684.176 10472184.395 20392014.596 10 0 60455 80100.00000 0 8572846.106 10353524.922 21667974.956 10 0 60455 81000.00000 0 5845079.406 10427677.521 22522675.755 10 0 60455 81900.00000 0 3051875.070 10706552.244 22939495.371 10 0 60455 82800.00000 0 262489.142 11189968.931 22910329.083 10 0 60455 83700.00000 0 -2454701.843 11865601.727 22435746.654 10 0 60455 84600.00000 0 -5034804.496 12709453.029 21524981.075 10 0 60455 85500.00000 0 -7418863.483 13686837.203 20195748.696 10 0 60456 0.00000 0 -9556066.070 14753832.834 18473904.346 10 0 60456 900.00000 0 -11405606.339 15859143.130 16392937.013 10 0 60456 1800.00000 0 -12938129.464 16946284.811 13993318.137 10 0 60456 2700.00000 0 -14136700.562 17956015.170 11321712.044 10 0 60456 3600.00000 0 -14997255.902 18828893.508 8430066.042 10 0 60456 4500.00000 0 -15528520.034 19507869.283 5374597.167 10 0 60456 5400.00000 0 -15751393.522 19940787.415 2214695.695 10 0 60456 6300.00000 0 -15697838.471 20082704.708 -988232.894 10 0 60456 7200.00000 0 -15409310.158 19897919.292 -4171964.464 10 0 60456 8100.00000 0 -14934802.242 19361627.142 -7274667.522 10 0 60456 9000.00000 0 -14328589.139 18461135.484 -10236105.282 10 0 60456 9900.00000 0 -13647761.817 17196581.721 -12998804.793 10 0 60456 10800.00000 0 -12949661.666 15581127.319 -15509170.314 10 0 60456 11700.00000 0 -12289321.104 13640618.181 -17718519.466 10 0 60456 12600.00000 0 -11717018.940 11412725.351 -19584022.369 10 0 60456 13500.00000 0 -11276053.379 8945601.518 -21069526.183 10 0 60456 14400.00000 0 -11000826.087 6296108.711 -22146249.763 10 0 60456 15300.00000 0 -10915317.528 3527690.326 -22793335.777 10 0 60456 16200.00000 0 -11032017.256 707975.007 -22998250.319 10 0 60456 17100.00000 0 -11351353.795 -2093789.127 -22757022.930 10 0 60456 18000.00000 0 -11861647.934 -4809364.587 -22074322.724 10 0 60456 18900.00000 0 -12539591.487 -7374111.061 -20963369.306 10 0 60456 19800.00000 0 -13351231.773 -9729422.340 -19445679.989 10 0 60456 20700.00000 0 -14253420.960 -11824913.588 -17550657.803 10 0 60456 21600.00000 0 -15195670.069 -13620269.150 -15315027.585 10 0 60456 22500.00000 0 -16122330.352 -15086674.946 -12782130.305 10 0 60456 23400.00000 0 -16975010.897 -16207776.524 -10001088.524 10 0 60456 24300.00000 0 -17695131.093 -16980123.409 -7025858.432 10 0 60456 25200.00000 0 -18226500.604 -17413081.750 -3914186.302 10 0 60456 26100.00000 0 -18517817.967 -17528219.367 -726489.316 10 0 60456 27000.00000 0 -18524981.974 -17358189.524 2475317.594 10 0 60456 27900.00000 0 -18213117.636 -16945160.840 5629025.947 10 0 60456 28800.00000 0 -17558230.254 -16338859.959 8673345.153 10 0 60456 29700.00000 0 -16548416.717 -15594310.057 11549097.190 10 0 60456 30600.00000 0 -15184581.699 -14769361.141 14200370.776 10 0 60456 31500.00000 0 -13480627.313 -13922116.914 16575612.065 10 0 60456 32400.00000 0 -11463106.932 -13108367.348 18628630.282 10 0 60456 33300.00000 0 -9170356.484 -12379135.747 20319498.507 10 0 60456 34200.00000 0 -6651138.490 -11778444.145 21615331.950 10 0 60456 35100.00000 0 -3962854.537 -11341391.541 22490928.620 10 0 60456 36000.00000 0 -1169399.944 -11092626.135 22929260.070 10 0 60456 36900.00000 0 1661250.712 -11045276.026 22921802.784 10 0 60456 37800.00000 0 4459627.310 -11200383.427 22468703.952 10 0 60456 38700.00000 0 7157410.262 -11546866.216 21578778.473 10 0 60456 39600.00000 0 9690029.414 -12062008.378 20269337.240 10 0 60456 40500.00000 0 11999108.242 -12712458.643 18565849.999 10 0 60456 41400.00000 0 14034652.219 -13455695.095 16501449.185 10 0 60456 42300.00000 0 15756890.847 -14241893.940 14116284.239 10 0 60456 43200.00000 0 17137697.331 -15016123.358 11456738.884 10 0 60456 44100.00000 0 18161527.514 -15720769.655 8574526.547 10 0 60456 45000.00000 0 18825839.843 -16298092.921 5525681.651 10 0 60456 45900.00000 0 19140979.966 -16692803.872 2369466.671 10 0 60456 46800.00000 0 19129536.103 -16854552.572 -832783.444 10 0 60456 47700.00000 0 18825193.616 -16740223.442 -4018856.484 10 0 60456 48600.00000 0 18271138.289 -16315939.168 -7126874.102 10 0 60456 49500.00000 0 17518076.786 -15558688.483 -10096494.885 10 0 60456 50400.00000 0 16621958.704 -14457508.745 -12870085.624 10 0 60456 51300.00000 0 15641497.016 -13014173.091 -15393837.921 10 0 60456 52200.00000 0 14635591.845 -11243352.795 -17618808.588 10 0 60456 53100.00000 0 13660766.246 -9172247.518 -19501863.943 10 0 60456 54000.00000 0 12768721.785 -6839698.317 -21006510.301 10 0 60456 54900.00000 0 12004116.329 -4294819.714 -22103595.256 10 0 60456 55800.00000 0 11402656.869 -1595207.037 -22771866.955 10 0 60456 56700.00000 0 10989586.820 1195207.362 -22998381.299 10 0 60456 57600.00000 0 10778630.632 4008561.056 -22778749.795 10 0 60456 58500.00000 0 10771439.481 6775632.898 -22117223.660 10 0 60456 59400.00000 0 10957560.908 9428473.336 -21026612.710 10 0 60456 60300.00000 0 11314933.551 11902985.819 -19528040.397 10 0 60456 61200.00000 0 11810886.256 14141353.227 -17650539.342 10 0 60456 62100.00000 0 12403599.850 16094209.603 -15430494.550 10 0 60456 63000.00000 0 13043970.464 17722467.709 -12910944.287 10 0 60456 63900.00000 0 13677796.367 18998726.973 -10140751.423 10 0 60456 64800.00000 0 14248196.505 19908203.612 -7173660.577 10 0 60456 65700.00000 0 14698158.906 20449144.514 -4067258.766 10 0 60456 66600.00000 0 14973111.316 20632707.820 -881859.450 10 0 60456 67500.00000 0 15023405.205 20482315.589 2320668.469 10 0 60456 68400.00000 0 14806607.564 20032506.001 5478103.818 10 0 60456 69300.00000 0 14289502.814 19327333.761 8529084.729 10 0 60456 70200.00000 0 13449719.188 18418386.440 11414304.614 10 0 60456 71100.00000 0 12276909.670 17362500.732 14077668.797 10 0 60456 72000.00000 0 10773436.351 16219275.352 16467388.769 10 0 60456 72900.00000 0 8954527.964 15048485.807 18536992.419 10 0 60456 73800.00000 0 6847902.576 13907510.334 20246230.331 10 0 60456 74700.00000 0 4492869.926 12848875.717 21561860.383 10 0 60456 75600.00000 0 1938949.782 11918026.475 22458295.421 10 0 60456 76500.00000 0 -755937.078 11151411.320 22918101.518 10 0 60456 77400.00000 0 -3527630.678 10574967.294 22932337.289 10 0 60456 78300.00000 0 -6308157.215 10203065.140 22500727.786 10 0 60456 79200.00000 0 -9028317.704 10037959.928 21631669.725 10 0 60456 80100.00000 0 -11620332.749 10069769.699 20342067.906 10 0 60456 81000.00000 0 -14020433.921 10276982.603 18657005.991 10 0 60456 81900.00000 0 -16171294.396 10627470.706 16609257.866 10 0 60456 82800.00000 0 -18024198.087 11079967.300 14238648.992 10 0 60456 83700.00000 0 -19540857.379 11585944.911 11591280.034 10 0 60456 84600.00000 0 -20694804.263 12091814.225 8718627.837 10 0 60456 85500.00000 0 -21472297.430 12541350.522 5676541.376 10 0 60457 0.00000 0 -21872708.267 12878244.477 2524152.714 10 0 60457 900.00000 0 -21908370.743 13048669.073 -677277.188 10 0 60457 1800.00000 0 -21603902.159 13003753.058 -3865550.614 10 0 60457 2700.00000 0 -20995025.205 12701856.465 -6978745.146 10 0 60457 3600.00000 0 -20126941.372 12110550.976 -9956417.431 10 0 60457 4500.00000 0 -19052325.496 11208221.251 -12740776.558 10 0 60457 5400.00000 0 -17829026.586 9985219.145 -15277803.860 10 0 60457 6300.00000 0 -16517572.225 8444521.709 -17518297.490 10 0 60457 7200.00000 0 -15178581.782 6601864.748 -19418821.839 10 0 60457 8100.00000 0 -13870197.028 4485345.667 -20942543.920 10 0 60457 9000.00000 0 -12645637.700 2134511.430 -22059941.255 10 0 60457 9900.00000 0 -11550983.951 -401031.202 -22749368.296 10 0 60457 10800.00000 0 -10623277.860 -3063426.288 -22997471.200 10 0 60457 11700.00000 0 -9889022.702 -5788726.025 -22799443.519 10 0 60457 12600.00000 0 -9363141.989 -8509306.352 -22159118.301 10 0 60457 13500.00000 0 -9048441.153 -11156441.791 -21088894.945 10 0 60457 14400.00000 0 -8935593.840 -13662933.905 -19609502.087 10 0 60457 15300.00000 0 -9003653.018 -15965685.336 -17749600.693 10 0 60457 16200.00000 0 -9221065.248 -18008113.506 -15545234.418 10 0 60457 17100.00000 0 -9547145.495 -19742304.384 -13039137.107 10 0 60457 18000.00000 0 -9933950.493 -21130817.243 -10279910.068 10 0 60457 18900.00000 0 -10328471.859 -22148065.528 -7321084.360 10 0 60457 19800.00000 0 -10675056.503 -22781216.442 -4220085.683 10 0 60457 20700.00000 0 -10917952.026 -23030571.709 -1037121.655 10 0 60457 21600.00000 0 -11003869.266 -22909413.683 2165987.038 10 0 60457 22500.00000 0 -10884453.100 -22443323.338 5327008.791 10 0 60457 23400.00000 0 -10518556.259 -21668998.934 8384512.786 10 0 60457 24300.00000 0 -9874219.023 -20632625.239 11279066.269 10 0 60457 25200.00000 0 -8930269.962 -19387862.169 13954393.586 10 0 60457 26100.00000 0 -7677478.800 -17993537.814 16358473.961 10 0 60457 27000.00000 0 -6119211.411 -16511143.232 18444556.223 10 0 60457 27900.00000 0 -4271557.876 -15002234.697 20172070.561 10 0 60457 28800.00000 0 -2162926.826 -13525852.822 21507419.364 10 0 60457 29700.00000 0 166878.327 -12136067.152 22424631.837 10 0 60457 30600.00000 0 2668063.876 -10879749.275 22905869.762 10 0 60457 31500.00000 0 5282673.434 -9794667.799 22941774.693 10 0 60457 32400.00000 0 7946763.428 -8907984.776 22531650.006 10 0 60457 33300.00000 0 10592836.609 -8235216.223 21683474.346 10 0 60457 34200.00000 0 13152432.849 -7779699.764 20413746.213 10 0 60457 35100.00000 0 15558769.901 -7532591.071 18747162.664 10 0 60457 36000.00000 0 17749324.557 -7473388.485 16716138.221 10 0 60457 36900.00000 0 19668246.994 -7570962.950 14360173.238 10 0 60457 37800.00000 0 21268507.981 -7785049.048 11725083.871 10 0 60457 38700.00000 0 22513689.693 -8068133.415 8862108.610 10 0 60457 39600.00000 0 23379345.728 -8367660.022 5826908.871 10 0 60457 40500.00000 0 23853874.011 -8628458.313 2678483.322 10 0 60457 41400.00000 0 23938866.727 -8795290.771 -521982.598 10 0 60457 42300.00000 0 23648923.450 -8815411.422 -3712309.058 10 0 60457 43200.00000 0 23010936.270 -8641026.378 -6830532.485 10 0 60457 44100.00000 0 22062877.914 -8231551.740 -9816110.478 10 0 60457 45000.00000 0 20852144.718 -7555572.903 -12611097.209 10 0 60457 45900.00000 0 19433524.905 -6592422.006 -15161266.350 10 0 60457 46800.00000 0 17866878.074 -5333306.501 -17417159.813 10 0 60457 47700.00000 0 16214623.675 -3781940.804 -19335042.239 10 0 60457 48600.00000 0 14539143.837 -1954653.821 -20877743.294 10 0 60457 49500.00000 0 12900209.095 120032.901 -22015372.132 10 0 60457 50400.00000 0 11352534.257 2402339.687 -22725890.955 10 0 60457 51300.00000 0 9943565.854 4842637.919 -22995537.332 10 0 60457 52200.00000 0 8711592.730 7383276.367 -22819087.720 10 0 60457 53100.00000 0 7684257.748 9960749.912 -22199957.529 10 0 60457 54000.00000 0 6877531.815 12508121.767 -21150135.938 10 0 60457 54900.00000 0 6295192.214 14957599.827 -19689956.612 10 0 60457 55800.00000 0 5928826.354 17243161.190 -17847708.345 10 0 60457 56700.00000 0 5758360.168 19303116.737 -15659092.564 10 0 60457 57600.00000 0 5753088.601 21082509.849 -13166537.414 10 0 60457 58500.00000 0 5873164.626 22535249.852 -10418380.980 10 0 60457 59400.00000 0 6071483.940 23625891.515 -7467938.713 10 0 60457 60300.00000 0 6295885.749 24330986.392 -4372472.574 10 0 60457 61200.00000 0 6491576.532 24639949.411 -1192081.599 10 0 60457 62100.00000 0 6603674.058 24555404.286 2011464.736 10 0 60457 63000.00000 0 6579763.565 24092993.125 5175927.556 10 0 60457 63900.00000 0 6372357.287 23280658.075 8239810.335 10 0 60457 64800.00000 0 5941152.368 22157425.146 11143557.362 10 0 60457 65700.00000 0 5254990.629 20771741.351 13830715.141 10 0 60457 66600.00000 0 4293436.121 19179435.128 16249033.580 10 0 60457 67500.00000 0 3047902.548 17441385.940 18351485.204 10 0 60457 68400.00000 0 1522281.626 15621001.057 20097182.287 10 0 60457 69300.00000 0 -266955.512 13781605.592 21452173.902 10 0 60457 70200.00000 0 -2291189.510 11983855.321 22390107.439 10 0 60457 71100.00000 0 -4510599.880 10283280.639 22892741.789 10 0 60457 72000.00000 0 -6875589.547 8728064.370 22950302.390 10 0 60457 72900.00000 0 -9328628.397 7357146.085 22561671.366 10 0 60457 73800.00000 0 -11806439.817 6198731.764 21734409.160 10 0 60457 74700.00000 0 -14242439.719 5269270.522 20484607.255 10 0 60457 75600.00000 0 -16569326.943 4572940.429 18836574.806 10 0 60457 76500.00000 0 -18721717.446 4101664.005 16822365.135 10 0 60457 77400.00000 0 -20638712.690 3835651.731 14481151.165 10 0 60457 78300.00000 0 -22266295.213 3744449.575 11858461.834 10 0 60457 79200.00000 0 -23559451.552 3788445.352 9005294.287 10 0 60457 80100.00000 0 -24483933.879 3920769.281 5977119.231 10 0 60457 81000.00000 0 -25017586.935 4089507.431 2832799.012 10 0 60457 81900.00000 0 -25151185.039 4240133.554 -366560.201 10 0 60457 82800.00000 0 -24888744.578 4318055.499 -3558799.290 10 0 60457 83700.00000 0 -24247299.518 4271167.699 -6681916.498 10 0 60457 84600.00000 0 -23256150.055 4052301.016 -9675273.198 10 0 60457 85500.00000 0 -21955616.717 3621465.726 -12480771.286 99